Wind_Speed
63 65 67 69 72 73 75 77 79 81 84 87 91 95 97 98 97 95 92 88 84 78 71 65 58 53 51 49 48 47 48 49 50 50 50 49 47 43 38 34 31 28 26 25 24 21 17 14 12 10 7 6 5 8 10 12 16 22 26 31 35 40 44 48 52 56 61 66 68 68 69 69 69 69 70 72 73 72 72 71 71 74 75 73 71 72 72
63 66 68 70 72 74 76 78 79 81 83 86 89 93 97 99 98 95 92 88 83 76 69 63 57 54 52 50 49 48 46 47 48 50 52 51 47 43 39 35 31 29 27 26 23 20 16 14 13 10 8 7 6 9 11 13 17 23 27 32 36 41 45 50 53 57 63 69 72 72 69 67 67 68 69 71 73 74 74 71 70 73 75 74 73 72 71
64 66 69 71 73 75 77 79 80 82 84 86 89 93 96 99 99 96 92 88 83 75 67 59 53 51 50 49 49 49 46 46 49 52 53 51 47 45 41 35 31 29 28 26 23 20 17 15 13 11 9 8 7 9 12 13 18 24 28 33 37 43 47 49 52 57 63 68 71 70 68 67 68 69 70 72 74 75 73 69 70 73 75 73 72 71 68
64 67 70 72 73 75 78 79 81 83 85 87 90 93 95 97 97 95 91 87 83 74 65 57 50 48 49 48 48 48 47 47 50 52 52 50 47 45 41 36 33 31 30 28 25 21 18 16 14 12 11 8 7 9 12 15 18 23 28 33 38 43 47 49 51 56 62 66 68 68 66 66 68 70 72 73 74 74 71 69 70 75 76 74 71 69 65
65 67 70 72 74 76 78 80 81 83 86 88 91 94 96 97 96 94 90 86 82 75 66 58 50 46 46 46 46 46 47 48 49 51 51 49 46 44 41 38 36 34 31 28 24 21 19 16 14 13 11 8 7 9 12 16 20 23 27 33 38 42 45 48 51 57 62 66 68 68 67 66 66 69 71 72 74 75 73 71 72 75 76 74 70 66 62
65 68 70 73 75 77 79 80 81 83 86 89 91 94 97 98 96 93 90 85 80 74 66 58 51 46 44 45 45 44 45 46 48 49 50 48 46 43 40 37 35 32 29 26 24 21 18 16 15 13 11 9 8 9 12 16 20 24 27 32 37 41 44 47 51 56 61 65 66 66 67 66 65 65 68 71 74 76 77 76 74 74 75 73 70 65 62
65 68 71 73 75 78 79 80 82 83 85 88 90 93 96 98 97 94 90 85 79 72 64 56 50 46 45 45 45 44 43 44 46 48 49 47 45 43 40 37 34 32 30 27 24 21 18 17 15 13 11 10 10 10 12 16 21 25 28 32 37 41 44 47 50 55 61 65 66 66 66 65 63 63 66 70 73 76 78 77 73 72 74 73 70 66 62
66 68 71 73 76 78 79 80 82 83 85 87 90 92 95 96 96 93 90 85 78 71 64 56 49 45 44 44 43 42 41 42 45 48 48 47 44 42 40 37 34 31 30 27 23 20 18 17 15 13 12 11 11 11 13 16 21 26 30 33 36 40 43 45 49 55 61 65 67 66 64 63 62 62 65 69 72 75 76 74 71 72 74 73 70 67 62
66 68 71 74 76 78 79 81 82 83 84 87 89 92 94 95 94 92 88 84 77 69 62 55 48 44 43 43 43 42 41 42 44 46 47 45 43 41 39 36 33 31 30 27 22 18 16 16 15 13 12 12 12 12 13 15 19 25 30 34 37 39 41 44 47 53 58 62 65 65 63 62 61 61 64 68 71 72 72 70 69 71 74 74 71 68 63
66 68 71 74 76 78 79 81 82 82 84 86 89 91 94 95 94 91 88 82 76 68 60 54 47 42 41 42 42 41 40 41 42 44 45 44 42 40 38 36 33 31 29 26 21 17 16 15 14 13 12 13 13 14 14 14 17 23 29 33 36 39 41 43 47 52 57 61 63 64 64 63 60 61 65 67 68 68 67 65 66 69 72 73 71 69 67
66 69 72 74 76 78 79 81 82 82 83 85 88 90 92 93 92 90 87 82 75 67 59 53 47 42 40 40 40 38 37 39 41 42 44 43 41 39 37 35 32 29 28 25 20 17 16 16 14 13 12 13 14 15 15 15 16 20 26 31 35 38 40 43 47 52 58 62 64 65 65 63 62 62 63 64 65 66 63 63 64 67 72 73 72 71 68
67 70 73 75 77 78 80 81 82 83 84 85 87 90 92 92 91 89 86 81 74 67 59 52 46 43 40 40 40 38 36 37 40 41 43 43 41 38 36 33 31 28 26 24 20 17 16 15 15 13 12 14 14 15 16 16 16 19 24 29 34 37 40 43 47 53 59 64 66 65 63 62 62 62 62 62 64 65 64 64 64 65 71 74 73 71 67
68 71 74 76 77 79 80 82 82 83 84 85 87 90 91 91 90 87 85 79 73 66 60 52 45 42 40 38 38 37 35 36 38 40 41 42 40 37 34 32 30 27 25 23 21 17 15 14 15 14 14 14 14 14 15 17 18 20 23 28 33 36 39 42 47 52 59 64 66 65 64 64 63 61 61 61 63 64 65 67 65 64 71 76 74 72 69
70 72 74 76 77 79 81 82 83 83 84 85 87 89 90 90 89 86 83 79 72 65 60 53 46 42 39 38 37 35 34 34 36 38 40 40 39 36 33 31 29 26 23 22 19 16 14 14 15 15 14 14 15 15 15 16 18 20 23 27 31 35 38 41 45 51 58 63 66 67 67 66 63 61 60 60 62 64 66 69 68 66 69 74 74 73 72
71 72 74 76 78 80 81 82 83 83 84 85 87 89 90 90 88 85 82 77 71 64 59 53 47 43 41 39 37 34 32 32 35 37 38 39 38 35 32 30 27 24 22 20 18 15 14 14 14 14 14 15 15 16 16 17 17 20 22 25 29 33 36 40 44 50 57 64 68 69 68 66 64 64 63 62 62 65 67 70 70 67 67 72 73 72 72
71 72 74 77 79 80 82 83 83 83 83 85 86 89 89 89 88 85 81 76 70 63 57 51 45 41 40 39 37 34 31 31 33 35 37 37 36 33 30 28 26 22 20 19 17 15 13 14 13 13 14 15 15 16 17 17 17 19 22 24 28 32 35 38 43 48 56 63 68 70 68 67 65 64 64 65 65 66 68 69 68 67 67 72 74 71 71
71 73 75 78 80 81 82 83 82 83 83 84 86 88 89 88 87 84 80 75 69 63 57 51 45 40 38 37 36 34 31 30 31 34 35 36 35 33 29 26 24 21 18 17 15 13 12 12 13 14 14 14 15 16 17 17 17 18 20 23 27 31 34 38 41 46 53 61 67 69 69 68 66 62 62 65 67 67 67 66 66 66 68 70 72 71 70
71 73 76 78 80 81 82 82 82 82 83 84 85 87 88 88 87 84 80 74 68 62 57 52 46 41 38 37 36 33 30 29 30 32 34 35 34 32 28 24 22 19 16 14 12 10 9 11 12 12 12 14 15 16 17 17 17 18 19 22 25 30 34 37 40 44 51 58 65 69 69 67 66 63 61 63 65 66 65 64 65 67 69 70 71 70 68
72 74 76 78 80 81 83 82 82 82 83 84 85 86 87 87 86 83 79 74 67 61 56 52 46 41 38 37 36 34 30 28 29 31 32 33 33 31 26 23 20 17 14 12 10 8 8 9 10 9 10 13 16 17 18 18 18 18 19 20 23 27 32 36 39 43 48 56 63 68 69 68 67 64 61 60 63 64 64 64 64 66 69 71 71 70 68
74 76 77 78 80 82 83 82 81 81 82 83 84 85 87 86 85 82 78 73 68 61 56 51 46 41 38 36 36 34 30 27 27 29 31 32 32 30 26 22 19 15 12 10 8 6 6 8 10 10 10 12 15 18 19 18 19 19 20 20 21 24 29 33 37 41 45 52 60 65 68 68 67 64 60 58 60 63 65 65 64 64 66 69 70 70 68
75 76 77 78 80 82 83 82 81 80 82 83 83 85 86 86 84 81 76 71 67 61 56 52 46 41 37 35 35 34 30 27 26 28 29 30 30 29 25 21 18 15 11 8 6 4 4 6 9 10 11 13 16 19 20 19 19 21 22 21 20 21 24 28 32 37 42 47 55 61 65 66 65 63 61 59 59 62 64 65 64 63 64 66 68 69 68
75 76 78 79 81 82 83 82 80 80 81 82 83 84 85 84 83 81 76 71 66 60 55 51 47 41 37 35 34 33 30 27 26 27 28 29 29 27 24 20 17 14 11 8 5 3 2 4 7 8 10 13 16 19 21 20 20 22 24 24 22 22 23 25 29 33 38 43 49 56 61 64 64 63 62 60 60 61 63 65 65 63 63 64 66 67 67
76 77 78 80 81 83 83 81 79 79 80 81 82 83 84 84 82 79 75 70 66 60 55 50 46 41 36 34 33 32 30 27 25 26 27 28 28 26 23 19 16 13 11 9 5 3 1 3 6 8 10 13 16 18 20 20 22 24 26 27 26 25 25 25 27 31 35 40 44 50 56 58 59 61 61 59 59 60 61 63 64 63 63 63 63 65 66
77 78 79 81 82 82 82 80 78 78 79 80 81 82 83 82 81 78 74 69 65 59 54 50 46 40 35 32 32 31 30 26 24 25 26 27 27 26 22 18 15 13 11 9 6 3 1 2 5 9 12 15 16 16 17 19 23 25 27 28 28 28 27 26 27 30 32 35 40 45 51 51 51 55 59 59 59 59 59 61 63 63 62 61 60 60 61
78 79 80 81 81 81 80 78 77 77 78 80 81 81 81 81 79 77 73 69 64 59 53 50 46 39 34 32 31 30 29 26 23 24 25 26 26 25 21 17 14 12 10 8 7 5 3 4 6 10 12 14 15 15 18 22 25 27 28 28 25 25 27 26 26 28 31 33 37 41 46 49 48 49 54 57 60 61 60 60 61 62 61 60 58 57 57
78 80 80 81 80 79 78 77 76 77 78 79 81 81 80 79 78 76 72 68 64 58 52 49 45 39 33 32 31 29 28 25 23 23 25 25 25 24 21 16 13 11 9 8 8 7 6 6 7 9 12 13 14 17 23 27 28 27 30 29 24 23 26 26 25 27 31 35 37 40 45 50 50 49 51 55 59 62 62 61 61 61 61 60 59 58 59
79 80 80 79 78 77 76 75 76 77 78 79 81 81 80 78 77 75 72 68 63 57 52 48 44 37 32 31 31 30 28 25 23 23 24 25 25 23 20 16 12 10 9 8 9 10 9 8 7 9 12 15 16 19 24 28 29 28 29 29 27 26 27 26 25 28 33 37 40 43 48 51 52 52 52 54 57 61 63 63 61 61 62 62 61 61 62
79 79 79 77 75 74 74 74 76 77 77 79 80 81 80 78 76 74 71 67 62 56 50 47 42 36 32 31 30 30 29 25 22 22 23 24 24 23 19 15 12 9 9 9 9 11 11 10 9 11 14 16 18 20 23 26 28 28 27 27 31 34 32 27 27 31 35 39 41 45 49 51 51 51 53 55 59 62 64 65 63 62 63 64 64 63 63
78 77 75 73 72 72 73 74 75 76 77 79 80 80 79 78 76 73 70 65 60 54 49 46 41 35 31 31 30 29 28 26 23 22 23 24 24 23 19 15 12 9 8 9 10 11 13 13 12 13 15 17 19 21 23 25 26 27 25 26 31 36 34 30 29 33 37 39 41 44 47 48 48 48 50 54 58 61 63 65 64 63 63 64 64 65 64
76 74 72 71 71 71 72 74 75 76 77 78 79 79 79 77 75 73 68 64 59 52 47 44 40 34 31 30 30 29 27 25 23 23 23 24 24 23 19 15 12 10 8 10 11 12 14 15 15 15 17 18 20 22 24 25 26 26 25 24 26 30 31 29 28 31 36 39 40 42 45 45 45 45 46 48 52 55 59 62 64 64 64 63 64 65 65
74 72 71 70 70 71 73 74 76 77 78 79 79 79 78 76 74 71 67 63 57 51 45 42 39 34 31 30 30 28 26 24 22 22 23 24 24 23 19 15 12 10 9 10 12 13 14 17 17 17 18 20 22 23 24 24 25 26 26 24 24 27 29 29 27 29 33 37 40 41 43 43 44 43 43 44 45 47 51 55 59 62 63 63 63 64 65
72 71 70 70 71 72 74 75 76 77 78 79 79 78 77 75 72 69 65 60 55 49 44 41 38 34 31 30 30 28 25 22 21 22 23 24 23 22 19 15 12 10 9 10 12 14 15 17 19 20 20 21 23 24 24 23 24 26 27 26 25 26 27 27 26 25 27 31 35 37 39 40 41 40 39 39 40 41 44 48 52 57 60 62 63 63 63
71 70 69 70 72 73 74 75 76 77 78 78 78 77 76 74 71 67 62 57 52 47 42 40 37 33 30 30 30 28 24 21 20 21 23 24 23 22 19 15 12 10 9 10 13 15 16 18 20 22 22 22 24 26 25 24 23 26 28 28 27 26 24 24 24 24 24 26 29 31 33 34 35 36 36 35 35 37 38 40 44 49 54 58 61 62 63
69 69 69 71 73 74 75 76 77 77 78 78 77 77 75 73 69 65 60 55 50 44 41 39 36 32 30 30 29 27 23 20 19 21 23 23 23 22 20 16 13 11 10 10 13 16 18 18 20 22 24 24 25 26 28 27 25 26 27 28 28 27 25 23 23 24 25 27 28 29 29 30 31 33 34 34 33 34 34 36 38 41 46 51 56 59 60
69 69 70 72 74 75 76 77 77 78 78 78 77 76 74 71 67 63 58 53 47 42 39 38 36 32 29 29 29 27 22 19 18 21 22 23 23 22 20 17 14 12 11 11 13 17 18 19 20 22 24 25 26 27 29 29 28 27 27 28 28 27 26 25 24 24 25 27 29 30 29 29 29 30 32 33 33 34 35 36 37 38 40 44 49 53 56
70 71 73 74 75 76 76 77 78 79 79 78 77 75 73 69 65 60 55 50 45 41 38 37 35 31 28 28 29 26 21 18 18 21 23 23 23 22 20 17 15 14 12 12 14 17 19 20 21 22 23 25 27 28 29 30 30 29 28 28 28 28 28 27 26 24 25 27 29 30 30 30 30 30 31 31 32 33 34 36 37 38 39 40 43 47 50
72 73 74 75 76 76 77 78 79 79 79 77 76 74 72 68 63 57 52 47 43 39 37 36 34 31 28 27 28 25 21 18 18 21 23 23 23 22 21 18 15 14 13 14 14 16 19 21 23 23 23 24 27 29 31 32 32 31 30 30 29 29 29 29 28 26 26 26 28 29 31 31 32 32 32 32 32 33 33 34 36 37 38 39 40 42 45
75 75 76 76 77 77 78 79 78 78 77 76 74 72 70 65 60 54 50 45 40 37 36 35 34 30 27 27 27 24 20 18 19 21 23 24 23 23 20 17 15 13 13 14 15 16 18 21 23 24 23 24 25 28 31 34 34 34 33 32 31 31 31 30 29 28 28 27 27 28 30 32 34 34 34 34 34 34 34 34 35 36 37 38 40 41 42
76 77 77 77 78 78 79 79 79 77 76 74 73 70 67 62 57 52 47 43 39 35 34 34 33 29 26 26 26 23 19 18 19 22 23 24 24 23 20 17 15 14 13 14 15 15 17 20 23 25 25 25 24 26 30 33 35 36 36 35 34 33 32 31 30 30 30 29 28 28 29 32 34 36 36 36 36 36 35 35 36 37 38 39 39 41 42
77 78 78 79 79 80 80 79 78 77 76 74 71 68 64 59 54 49 44 40 37 34 33 33 32 28 26 26 25 22 19 18 20 23 24 25 25 23 20 17 15 14 14 14 14 15 17 20 23 25 27 27 26 25 27 31 34 36 37 38 37 37 35 34 33 32 32 32 30 29 28 30 32 35 36 37 37 37 37 37 37 38 38 39 40 41 42
78 79 80 81 81 81 80 79 78 76 75 72 69 65 61 56 51 47 42 39 35 32 32 32 31 28 26 26 24 20 18 18 20 23 25 25 25 23 21 18 16 15 15 14 15 16 18 21 24 26 28 28 28 27 26 28 30 34 36 38 39 39 39 37 36 36 35 34 33 31 30 30 31 33 35 37 38 38 38 39 39 39 40 40 41 42 43
80 80 81 82 82 81 80 78 76 75 73 70 66 62 58 53 49 43 40 37 34 31 31 31 30 28 26 25 22 19 18 19 21 23 25 25 25 24 21 19 17 16 14 14 15 17 20 22 24 26 28 30 30 29 28 27 28 29 32 35 37 39 40 40 40 39 39 38 37 36 34 32 32 32 34 35 37 38 39 40 41 41 41 41 42 42 43
81 82 82 82 82 81 79 77 75 73 70 67 63 58 54 50 46 41 38 36 33 31 31 30 29 27 26 23 21 19 18 19 21 23 25 26 25 24 22 19 17 14 13 13 15 18 21 23 25 26 29 31 31 31 30 29 28 28 29 30 33 36 38 40 41 41 42 41 41 40 38 36 35 35 34 35 36 37 39 40 41 41 42 42 43 44 44
82 83 83 83 81 79 77 75 73 70 67 63 59 54 50 47 43 40 37 34 32 31 30 29 28 27 25 22 20 19 19 20 22 24 25 26 25 24 22 19 16 13 13 14 16 19 22 24 25 26 29 31 32 32 32 31 30 29 28 28 29 31 33 36 38 40 41 42 42 42 41 40 39 38 38 37 37 37 38 39 40 41 42 43 43 44 45
84 84 83 82 79 77 75 73 71 68 64 59 55 51 48 44 40 38 36 33 31 30 30 29 28 26 24 21 20 19 20 21 23 24 25 26 25 24 22 19 16 14 14 16 18 20 22 23 24 27 29 31 32 33 34 34 32 31 30 29 29 29 29 30 32 35 37 39 40 41 41 41 41 40 40 40 40 39 40 40 41 41 42 43 44 44 45
85 84 82 80 78 76 74 71 69 64 60 56 52 48 45 41 37 35 35 33 30 29 29 28 27 26 24 22 21 20 21 22 24 25 26 26 26 24 22 20 18 16 17 18 19 21 22 23 24 26 29 30 31 33 35 36 35 34 32 31 31 30 28 28 29 30 31 33 35 36 38 39 39 40 40 40 41 41 41 41 42 42 43 44 44 45 46
84 82 80 78 76 74 72 69 66 61 57 53 49 45 43 40 36 34 34 33 30 29 29 28 27 25 24 23 22 22 22 23 24 25 26 26 26 24 23 21 20 19 18 18 18 20 22 23 24 26 28 30 32 33 35 36 37 36 35 34 33 31 30 29 28 28 28 29 29 31 33 34 35 36 37 38 39 40 40 41 42 42 43 44 45 46 46
82 80 78 76 74 72 69 66 62 58 54 50 46 42 40 38 36 34 33 31 30 30 29 28 26 26 25 24 23 23 23 24 25 25 26 26 26 25 23 22 21 20 19 18 18 19 21 23 25 27 28 29 31 33 35 36 38 38 37 37 36 34 32 31 30 29 28 28 27 28 28 30 31 32 32 33 35 36 37 38 39 40 41 42 43 44 45
80 78 76 74 72 69 66 63 59 55 51 47 43 40 38 37 36 35 32 30 30 30 30 28 27 26 25 25 25 25 24 24 25 25 26 26 26 25 24 23 22 21 20 19 19 20 21 23 25 27 28 28 29 32 35 37 39 40 40 39 38 37 35 33 32 31 30 29 28 28 27 28 28 28 29 29 30 31 32 33 34 35 36 37 38 39 40
78 76 74 71 68 65 62 59 56 53 49 45 41 38 37 36 35 35 33 31 30 30 30 28 27 26 26 26 26 26 25 25 25 25 25 25 25 25 24 23 23 22 20 19 19 20 21 23 25 27 28 28 29 32 36 38 40 41 42 41 40 39 38 36 35 34 32 31 31 30 29 29 28 28 28 28 28 29 29 30 31 31 32 32 32 33 34
76 73 71 68 64 61 59 57 54 51 47 43 40 37 37 36 35 34 34 32 31 30 30 29 28 27 27 26 27 27 26 26 25 25 25 25 26 26 25 24 24 23 21 20 20 20 21 23 25 27 28 28 28 31 35 39 41 42 43 43 42 41 40 39 37 36 35 34 33 33 32 31 31 30 30 30 30 30 30 30 30 30 30 30 30 31 31
73 70 67 64 61 58 56 54 51 49 46 42 39 38 37 36 35 34 34 32 31 31 30 29 28 28 27 27 27 27 27 27 26 25 26 26 26 26 25 25 25 24 22 21 20 21 22 24 26 27 28 28 27 28 32 36 39 41 42 42 43 42 42 40 39 38 37 37 36 35 35 34 34 33 33 33 32 32 32 32 32 32 31 31 31 32 32
Wind_Direction
340 341 341 341 341 340 340 341 343 345 345 345 346 347 348 348 349 349 349 348 349 348 347 346 347 346 347 348 347 347 349 351 351 349 351 355 355 353 352 353 353 355 359 2 0 359 2 6 10 18 37 67 107 135 142 155 165 166 170 174 177 178 177 179 183 183 183 186 189 192 193 192 191 190 191 190 189 190 191 193 195 194 193 191 191 192 194
340 341 341 342 342 341 340 341 344 345 344 345 346 347 348 348 349 349 349 348 349 349 348 346 346 346 346 347 347 349 351 350 351 354 356 356 355 355 356 356 357 360 4 6 4 2 7 15 20 26 43 66 102 130 137 153 164 165 170 175 176 176 177 179 182 182 183 185 187 190 192 192 189 189 190 190 188 189 190 191 193 195 194 192 191 193 195
340 341 341 342 342 340 340 342 344 344 344 345 346 348 348 348 348 349 349 348 348 349 348 347 346 345 345 347 348 348 350 352 354 358 358 356 356 357 357 357 0 4 6 8 8 8 12 19 26 34 49 67 99 126 135 153 164 165 170 175 176 176 178 181 181 182 184 185 186 189 191 190 189 188 189 190 189 188 189 189 190 193 194 193 192 194 195
340 340 341 342 342 340 340 343 345 344 344 345 346 347 348 349 348 348 349 348 347 348 349 347 346 346 346 348 348 347 349 355 358 358 357 356 357 357 356 358 3 7 8 8 10 12 16 20 28 37 49 65 96 124 136 150 161 165 171 175 176 177 179 180 181 182 184 186 186 188 189 190 189 188 188 188 188 187 187 188 189 192 193 193 193 194 195
339 339 340 342 341 340 341 344 345 344 343 344 346 347 348 348 348 348 349 348 347 348 348 348 348 348 347 348 348 348 351 356 358 357 357 358 358 358 357 0 5 7 6 6 10 14 17 22 29 40 51 66 95 121 137 150 157 163 171 175 176 178 179 179 180 183 184 186 187 187 188 190 190 189 187 186 187 187 186 187 189 191 191 192 193 194 195
339 339 340 341 340 340 342 344 344 344 343 344 346 348 348 348 348 348 349 349 348 347 348 348 347 348 348 348 349 351 354 355 357 357 358 359 359 358 358 1 4 6 6 8 13 17 21 25 31 41 57 74 96 117 137 149 154 161 170 175 177 179 180 180 181 183 184 185 187 187 187 189 191 190 188 186 187 187 187 187 188 189 189 191 192 193 194
338 339 340 340 339 341 343 344 344 343 343 344 346 348 348 347 348 348 349 349 349 348 347 348 347 348 349 350 350 352 354 355 357 358 358 359 360 359 359 1 3 6 8 11 14 18 23 28 33 43 60 79 97 117 137 149 153 159 168 175 178 179 181 181 180 181 183 185 187 187 187 188 190 190 189 188 188 189 189 187 186 186 188 189 190 190 193
338 339 339 338 339 342 343 344 343 343 343 344 345 348 348 348 348 348 348 349 349 348 347 347 348 348 349 350 350 351 354 356 358 359 359 359 360 359 359 1 3 7 11 12 15 20 24 29 36 45 60 79 97 115 134 148 155 160 166 173 178 180 181 181 180 181 183 185 186 186 186 187 188 189 190 190 190 191 190 187 184 184 187 188 188 189 192
338 339 338 337 340 342 343 343 343 343 343 344 345 347 348 347 348 348 348 349 349 349 348 347 348 349 349 349 350 351 353 357 358 359 359 359 0 360 359 0 3 8 12 12 15 23 28 32 38 48 63 79 94 109 126 143 155 161 166 171 176 179 180 180 180 181 184 186 186 185 185 186 187 188 190 191 192 191 190 187 185 185 186 187 187 187 190
337 337 336 337 340 342 342 343 343 343 343 344 345 347 347 347 348 348 348 349 350 350 348 346 347 350 350 349 351 351 353 356 358 358 359 360 1 0 360 1 4 9 12 12 14 26 36 40 45 54 68 81 92 105 119 136 154 163 168 171 174 177 179 179 179 180 183 185 186 185 184 184 186 189 190 191 192 191 189 187 187 186 186 187 187 187 188
336 335 335 337 339 341 342 342 342 343 343 344 345 346 347 347 348 348 348 349 349 350 349 346 345 349 350 349 350 351 352 354 357 358 360 0 0 0 0 1 3 8 12 11 15 30 42 46 52 62 75 85 93 104 116 130 149 163 169 171 173 177 178 178 178 179 182 184 185 185 185 184 185 189 190 191 191 189 187 187 188 188 188 188 187 188 188
333 333 335 337 339 340 340 341 342 342 343 343 344 346 347 347 348 348 349 349 349 349 349 347 345 347 350 350 349 351 353 355 357 358 360 1 0 359 0 1 2 7 12 13 18 32 45 52 57 64 77 89 96 106 119 130 145 161 168 169 172 176 178 179 178 179 181 183 184 185 185 185 187 188 189 190 190 187 184 185 188 189 189 189 188 188 188
331 332 335 336 338 339 340 340 341 342 342 342 343 345 347 347 348 348 348 349 349 349 348 347 345 345 349 349 349 351 353 355 356 358 360 1 360 358 359 1 2 6 10 15 21 30 44 58 63 66 73 84 95 106 119 130 142 156 165 168 171 176 179 180 179 179 180 182 183 184 185 186 188 188 187 189 189 186 184 185 187 189 190 190 189 188 187
330 332 334 336 337 338 339 340 341 341 341 342 343 344 346 347 348 349 349 348 349 349 347 346 345 345 347 349 349 350 352 354 356 357 359 0 359 358 358 0 3 6 9 16 24 31 45 60 69 75 80 87 97 106 116 128 139 151 161 166 170 175 179 181 180 179 180 181 182 184 186 187 188 188 186 187 188 187 185 186 189 190 191 191 191 190 189
330 333 334 336 337 337 338 339 340 340 340 341 342 344 346 346 347 348 349 348 348 349 348 346 344 344 346 347 349 350 351 353 355 357 359 0 359 358 357 359 4 6 9 16 24 35 52 64 72 81 89 94 102 108 115 124 136 147 156 163 169 174 178 182 182 180 180 182 183 185 187 188 189 188 185 184 187 189 188 189 191 191 191 192 193 193 193
331 333 334 335 336 337 337 338 339 339 340 340 342 344 345 346 346 347 349 348 348 348 348 345 343 342 343 345 346 348 350 352 354 356 358 360 360 357 356 359 3 5 9 17 24 35 54 68 75 82 89 96 103 109 114 121 131 143 153 160 167 172 177 181 183 182 181 183 184 186 188 189 192 191 185 182 186 190 190 191 193 192 191 193 195 195 195
332 333 334 334 335 336 337 337 338 338 339 340 342 343 345 345 346 347 348 348 348 347 347 345 342 341 343 343 344 347 348 351 353 355 356 359 360 357 354 357 2 4 8 17 24 32 50 69 79 84 89 96 103 109 114 119 126 138 150 158 166 171 175 179 183 184 183 184 185 187 189 190 193 193 188 184 186 189 190 190 192 194 193 194 195 196 197
331 332 333 334 335 336 336 336 337 337 338 339 341 343 344 345 345 346 346 347 348 347 346 345 342 341 342 342 343 345 347 349 351 353 355 357 359 357 353 354 360 2 5 14 24 33 53 73 82 89 98 104 106 109 113 118 123 133 145 155 164 171 174 178 182 184 184 184 186 188 190 192 193 194 191 188 188 188 188 190 192 194 195 196 196 197 198
329 330 331 332 334 335 335 336 336 336 337 338 341 343 343 344 345 345 345 346 347 347 346 345 342 340 340 341 341 343 346 347 348 351 354 356 358 357 352 350 355 359 0 7 17 31 58 80 88 92 101 110 111 109 110 115 120 128 138 150 160 169 174 177 180 183 185 185 187 189 191 192 194 195 193 191 190 188 188 190 193 195 197 198 197 197 199
328 329 330 331 332 333 334 335 335 335 336 338 340 342 343 343 344 344 344 346 346 346 345 344 341 338 339 340 340 341 343 345 346 349 352 354 355 356 351 347 349 352 353 360 10 24 57 89 100 99 102 110 112 110 109 114 121 127 133 142 153 164 172 176 179 181 184 186 188 190 193 194 195 195 193 192 192 191 190 191 192 195 197 199 199 199 199
327 328 329 330 331 332 333 333 334 335 335 337 340 342 342 342 343 343 343 345 345 345 345 343 341 338 338 339 339 340 341 342 343 346 350 352 353 354 351 345 343 342 342 350 5 17 54 97 109 110 112 114 114 113 112 116 124 129 130 134 143 155 165 173 177 179 182 186 188 191 193 195 196 196 194 194 194 194 193 192 192 195 197 199 200 200 200
325 327 328 329 330 331 331 332 333 334 334 336 339 341 341 341 341 342 342 344 345 344 344 343 340 337 337 338 338 339 339 339 341 344 347 349 351 352 350 344 339 335 332 336 349 1 47 111 117 117 120 121 121 121 120 122 127 129 127 128 133 142 153 164 172 176 180 183 188 191 193 195 197 198 196 196 196 197 196 195 194 195 197 198 199 200 200
324 326 327 328 329 329 330 331 332 333 334 336 339 340 341 340 340 341 341 343 344 343 343 342 340 336 335 336 337 337 337 336 338 341 344 347 348 349 349 344 337 330 325 323 324 326 329 126 125 123 125 127 125 123 125 128 129 128 127 128 130 134 142 153 163 170 175 179 184 189 192 194 197 199 199 199 199 200 199 198 197 197 198 199 199 199 199
324 325 326 327 327 328 328 330 331 332 333 336 338 340 340 339 339 340 341 342 343 342 341 341 340 337 334 335 336 336 335 333 334 337 341 344 345 346 347 344 335 324 317 312 306 299 288 157 138 133 135 136 130 121 120 124 126 129 130 130 130 132 136 145 155 162 167 173 178 184 188 191 194 198 201 202 203 203 202 200 200 200 200 200 200 199 199
323 324 325 326 326 327 328 329 330 331 333 335 337 338 339 338 338 339 340 341 342 342 341 340 339 337 334 334 334 335 334 331 331 334 338 342 343 343 344 343 334 321 309 300 290 274 237 191 164 149 146 148 142 130 126 128 132 135 132 125 125 133 136 139 147 152 157 166 172 177 182 186 189 194 198 202 204 204 203 203 202 202 201 200 199 199 199
322 323 324 325 325 326 327 328 329 331 333 335 336 337 338 338 338 339 340 340 341 341 340 339 339 337 334 333 333 333 333 330 328 331 336 340 341 341 340 339 333 317 299 285 273 259 237 214 190 164 154 155 152 142 137 138 139 140 137 131 133 140 138 135 141 149 155 163 168 170 176 183 188 191 195 200 203 204 204 203 203 202 202 201 200 199 199
321 322 323 324 325 326 326 327 329 331 333 335 335 336 336 337 337 339 339 339 339 339 339 339 338 336 334 333 332 332 332 330 326 328 334 337 339 340 338 334 329 314 291 272 260 250 239 225 204 176 162 162 160 152 149 149 148 148 147 144 145 145 143 143 151 157 160 164 166 169 174 181 187 191 194 198 202 204 204 204 203 203 202 201 201 202 202
320 321 322 323 324 325 326 327 329 330 333 334 334 335 335 336 337 338 339 338 338 338 338 338 337 336 333 333 333 331 330 328 325 326 332 335 337 339 336 330 324 310 284 262 249 242 236 226 209 186 173 170 167 162 162 162 160 159 158 155 153 153 154 157 164 167 167 167 169 173 176 181 187 191 194 198 201 203 204 204 204 204 204 202 202 203 205
319 320 322 323 324 324 325 327 328 330 332 333 334 334 335 336 337 337 337 337 337 337 337 336 336 335 333 333 332 331 329 327 323 324 330 334 335 336 334 327 320 308 281 258 244 236 231 226 213 195 185 180 174 171 171 171 169 168 167 165 164 164 164 167 173 174 172 171 172 175 179 182 187 191 196 199 201 203 204 205 205 206 206 205 204 204 206
319 321 322 323 323 324 325 326 328 330 332 332 333 333 334 335 336 336 335 335 335 336 336 335 334 333 332 332 331 330 328 324 320 321 328 333 334 334 332 326 318 307 282 256 243 234 228 225 217 203 194 190 185 181 180 178 176 176 175 173 172 172 172 175 180 180 177 175 176 178 181 185 188 192 197 200 201 203 204 206 208 208 208 208 208 207 208
320 322 323 323 323 323 325 326 328 329 331 332 332 333 334 334 334 334 334 334 334 334 334 334 333 332 332 331 330 329 327 322 318 320 326 331 333 332 330 325 316 304 281 255 242 233 226 224 219 210 200 196 194 194 192 187 183 182 182 182 182 182 182 184 187 185 181 180 181 183 185 188 190 193 198 201 202 202 204 207 209 210 211 211 211 211 211
321 322 323 322 322 323 325 326 327 329 330 331 332 332 332 333 333 333 333 332 333 333 332 332 332 330 329 329 329 328 325 321 317 319 325 329 332 330 327 321 312 300 280 256 241 232 225 222 221 215 207 201 200 201 202 198 191 187 188 191 194 194 193 193 194 192 186 184 185 188 190 193 194 196 199 201 201 202 204 207 209 211 212 212 213 213 213
321 322 322 321 322 323 324 325 327 329 330 330 331 331 331 332 332 332 331 331 331 331 330 331 331 329 327 327 328 327 324 320 317 319 323 328 330 329 325 318 308 296 278 254 239 231 225 221 220 219 214 207 202 203 207 207 200 193 193 197 202 205 203 199 199 196 189 184 187 191 193 196 199 199 200 200 200 200 203 207 210 212 212 213 214 215 215
321 321 320 320 321 322 323 325 327 328 329 329 330 330 330 331 331 330 330 330 330 329 329 329 330 327 324 325 327 327 323 318 316 318 322 327 328 327 323 316 306 294 277 253 238 232 227 221 219 220 219 214 207 205 208 211 209 204 202 203 207 210 210 207 204 199 192 188 189 191 193 196 199 200 200 201 199 198 198 201 206 210 212 212 213 214 216
320 320 320 320 321 322 323 325 326 327 328 328 329 329 329 330 330 329 329 329 329 328 327 328 328 326 322 323 326 326 321 316 315 318 322 325 327 325 321 314 305 294 277 253 237 232 229 224 220 219 220 218 214 209 209 213 215 213 211 211 212 213 214 213 210 205 199 195 193 193 194 197 199 200 200 200 199 199 198 198 200 203 207 210 212 213 215
319 319 319 320 321 322 323 325 326 327 327 328 328 328 328 328 328 328 328 328 327 326 326 326 326 323 321 322 324 323 318 314 315 319 322 324 325 324 320 312 304 297 283 260 240 232 227 224 221 220 219 219 216 214 213 214 217 218 218 217 217 217 217 217 216 213 208 204 201 198 197 199 201 202 202 201 200 200 200 200 200 201 202 206 209 211 212
318 318 319 319 321 322 323 325 325 326 326 326 326 327 327 327 327 327 327 326 325 324 324 325 325 322 319 321 323 320 314 313 315 319 321 323 323 322 319 313 306 299 287 269 252 238 229 224 223 222 220 218 217 216 216 217 219 221 222 222 222 221 220 220 220 219 216 212 208 203 201 201 202 204 206 205 204 203 203 203 204 204 205 206 208 209 211
317 318 318 320 321 322 323 324 324 324 324 325 325 326 326 325 326 326 326 324 323 323 323 324 323 321 318 319 320 317 312 312 316 319 322 322 321 320 319 313 304 294 283 270 259 247 235 228 224 223 221 219 217 216 216 217 219 221 223 225 225 225 224 223 223 223 223 220 215 209 206 206 206 207 207 208 208 207 206 206 207 208 209 211 212 214 214
316 317 318 320 321 322 322 323 323 323 323 324 324 325 324 324 325 325 324 322 321 321 321 322 321 319 318 318 317 314 309 311 316 320 322 321 320 320 318 311 301 292 282 271 262 252 242 233 226 223 221 221 218 215 215 216 218 219 221 224 226 227 227 227 226 227 228 228 225 217 211 209 210 211 211 211 210 210 210 211 212 212 213 213 215 217 218
315 317 319 320 320 321 322 322 322 322 323 323 324 324 323 323 323 323 322 320 319 319 320 320 320 318 317 317 314 310 307 310 317 321 321 320 319 318 316 309 299 289 280 269 258 249 242 235 228 223 221 220 219 216 214 215 216 218 219 221 224 227 228 229 228 229 230 231 231 228 221 215 214 214 214 214 214 213 213 213 214 216 216 217 218 219 220
316 318 319 319 320 320 321 321 321 322 322 322 323 323 322 322 322 321 319 317 317 317 318 318 318 317 316 315 311 306 304 310 317 320 320 319 318 317 315 307 296 286 280 271 259 246 239 234 230 225 222 220 219 218 216 215 215 216 217 219 221 224 226 228 229 230 231 233 234 233 230 225 220 218 217 217 217 217 217 216 216 217 218 220 221 222 222
316 317 318 318 319 319 319 320 320 320 320 320 321 321 320 320 319 318 316 315 315 315 315 316 316 316 315 312 307 302 302 309 316 319 319 319 318 316 313 305 296 292 291 283 266 251 241 236 232 227 224 220 218 217 217 216 215 216 216 218 220 222 224 226 228 229 231 233 235 235 234 232 228 224 221 219 219 219 220 220 220 220 220 221 222 224 225
316 316 317 317 318 318 318 318 318 318 318 319 320 320 318 317 316 315 313 312 313 313 313 314 315 316 314 309 302 298 300 308 315 318 319 318 318 316 312 305 299 297 295 283 265 251 244 239 234 229 226 223 220 217 216 215 216 216 216 216 218 220 222 224 226 227 229 230 233 235 235 235 233 231 228 224 222 221 221 222 223 223 223 224 224 225 226
315 315 316 316 316 316 316 317 316 317 317 318 318 317 316 315 314 312 310 311 311 310 310 312 315 315 311 304 297 296 301 308 313 317 318 318 318 316 311 304 300 295 285 269 256 248 245 243 238 232 229 226 222 218 216 215 216 216 216 216 216 217 219 221 223 226 228 230 231 233 235 235 235 235 233 231 228 226 225 225 224 225 226 226 227 228 228
314 314 314 314 314 315 315 315 315 315 316 316 316 314 313 312 311 309 308 309 309 307 308 311 313 313 308 300 294 294 300 306 311 315 317 318 317 316 310 303 297 288 276 264 254 248 245 244 240 236 232 229 225 220 217 216 217 216 216 216 217 216 216 217 220 222 225 228 230 232 234 235 235 235 235 234 233 231 230 229 228 228 228 229 229 230 231
313 313 313 313 313 313 314 314 314 314 315 314 314 312 311 310 309 306 304 306 306 305 304 308 311 309 304 296 291 293 299 305 309 312 315 317 318 315 310 302 293 283 274 268 262 255 250 246 242 239 236 233 229 224 220 218 217 217 217 217 218 217 216 216 217 219 221 224 226 228 230 233 234 235 235 235 234 234 233 233 232 232 232 233 233 233 233
311 311 311 312 312 312 312 312 312 313 313 312 311 310 308 307 306 303 302 303 304 302 301 304 307 306 300 292 289 291 297 302 307 311 314 317 317 315 309 301 292 285 279 275 269 261 255 250 246 242 239 236 233 229 224 221 219 218 218 218 219 219 217 216 217 219 219 220 221 223 225 228 230 232 233 234 235 235 235 235 236 236 236 237 237 237 237
310 310 310 310 311 311 311 311 310 310 310 310 309 307 305 304 303 301 300 301 300 298 298 300 303 303 297 290 287 288 294 300 305 309 312 315 317 315 310 301 294 287 282 278 271 263 256 252 248 245 242 238 234 231 228 224 222 221 220 220 221 221 219 218 219 219 220 220 220 220 221 223 225 227 229 231 232 234 235 236 237 238 238 239 239 240 240
308 308 309 309 309 310 309 309 308 308 308 307 306 304 302 301 299 299 299 298 296 294 295 297 299 300 296 290 285 286 290 297 302 307 311 314 315 314 310 302 295 289 283 280 275 266 258 252 249 247 246 242 236 231 229 226 224 222 221 222 222 222 222 221 221 221 221 221 221 221 221 222 223 224 225 227 228 230 232 234 235 237 238 238 239 240 240
307 307 308 308 308 308 307 306 306 305 305 304 303 301 299 298 297 297 297 295 293 291 292 293 295 296 294 289 285 285 288 294 299 304 309 312 314 313 309 302 295 289 285 282 278 271 263 256 251 249 247 244 238 232 229 227 225 223 223 222 223 223 223 223 223 223 223 223 223 223 223 223 224 224 224 225 227 228 230 231 233 234 236 237 238 239 240
306 306 306 306 306 306 305 304 304 303 302 302 301 299 297 296 295 294 293 292 291 289 289 289 290 292 293 290 286 284 286 290 296 302 307 311 312 312 308 302 295 290 286 283 279 273 265 258 254 251 250 247 242 235 231 229 227 225 224 223 223 223 224 224 224 225 225 226 226 226 226 226 226 226 226 227 228 229 230 231 233 234 236 237 238 239 240
305 305 305 305 304 304 302 302 302 301 300 300 299 297 295 295 294 291 290 289 288 287 286 286 287 289 291 291 288 286 285 288 293 299 305 308 309 309 307 301 295 289 286 284 279 274 267 260 256 254 253 252 248 242 236 232 231 229 227 224 223 223 224 225 225 226 227 228 229 229 230 230 230 230 230 230 231 232 232 234 235 236 237 239 240 241 242
Height
10610 10604 10599 10593 10586 10579 10573 10567 10560 10551 10542 10531 10520 10509 10501 10494 10485 10474 10464 10455 10446 10436 10426 10420 10415 10411 10407 10403 10398 10392 10385 10379 10375 10369 10360 10353 10348 10344 10339 10333 10328 10324 10320 10316 10313 10311 10309 10307 10305 10304 10303 10302 10302 10303 10303 10305 10307 10309 10312 10315 10318 10321 10326 10331 10337 10344 10352 10361 10371 10380 10386 10394 10405 10418 10431 10442 10454 10467 10477 10487 10497 10505 10512 10522 10530 10534 10539
10607 10601 10596 10590 10583 10576 10569 10562 10555 10548 10540 10532 10522 10511 10498 10488 10480 10472 10461 10451 10444 10437 10427 10419 10412 10407 10403 10399 10395 10391 10386 10380 10375 10367 10358 10353 10348 10343 10337 10333 10328 10323 10320 10317 10314 10312 10309 10308 10306 10305 10304 10303 10303 10303 10304 10306 10308 10310 10312 10315 10318 10323 10327 10331 10337 10344 10351 10358 10367 10376 10386 10398 10410 10420 10431 10442 10452 10461 10470 10482 10495 10504 10511 10518 10525 10531 10538
10604 10598 10592 10587 10580 10573 10565 10558 10551 10543 10536 10528 10519 10509 10498 10486 10476 10468 10460 10450 10442 10436 10428 10420 10414 10408 10403 10398 10392 10388 10385 10379 10372 10365 10359 10354 10348 10342 10338 10333 10328 10324 10320 10317 10315 10312 10310 10308 10307 10306 10305 10304 10304 10305 10305 10307 10309 10311 10314 10317 10320 10323 10328 10333 10339 10346 10352 10359 10367 10377 10388 10399 10409 10419 10428 10439 10448 10458 10469 10482 10493 10501 10510 10519 10526 10533 10541
10601 10595 10589 10583 10577 10570 10563 10555 10547 10538 10531 10523 10515 10506 10498 10489 10476 10466 10457 10447 10439 10434 10429 10422 10416 10409 10402 10397 10392 10387 10382 10377 10370 10365 10361 10355 10349 10343 10338 10333 10328 10324 10321 10318 10315 10313 10311 10309 10308 10307 10306 10306 10306 10306 10307 10309 10311 10313 10315 10318 10322 10325 10329 10335 10343 10349 10355 10363 10371 10379 10390 10399 10407 10415 10424 10435 10447 10458 10470 10480 10488 10495 10506 10518 10527 10536 10546
10598 10592 10586 10580 10574 10568 10560 10552 10544 10536 10527 10519 10511 10502 10493 10487 10478 10467 10457 10447 10436 10430 10425 10420 10415 10410 10403 10398 10394 10388 10381 10376 10372 10368 10362 10356 10350 10345 10339 10334 10330 10326 10323 10320 10317 10315 10313 10311 10310 10309 10308 10308 10308 10308 10308 10310 10312 10315 10318 10321 10324 10328 10332 10338 10344 10350 10357 10365 10372 10381 10391 10401 10408 10414 10422 10433 10444 10455 10465 10472 10480 10491 10504 10516 10527 10538 10549
10596 10590 10583 10577 10571 10565 10557 10549 10542 10535 10526 10516 10508 10499 10488 10480 10474 10466 10456 10447 10436 10427 10421 10417 10412 10408 10404 10398 10394 10388 10382 10377 10373 10369 10363 10357 10351 10346 10341 10336 10332 10329 10325 10322 10319 10316 10314 10313 10311 10311 10310 10309 10309 10310 10311 10312 10314 10317 10320 10323 10326 10330 10335 10340 10345 10352 10360 10368 10376 10384 10392 10401 10409 10418 10426 10433 10442 10451 10457 10464 10475 10489 10502 10514 10526 10538 10548
10593 10587 10581 10575 10568 10562 10555 10547 10539 10532 10525 10515 10507 10498 10487 10476 10467 10460 10452 10445 10436 10427 10421 10416 10411 10406 10402 10397 10392 10387 10383 10379 10374 10369 10364 10358 10353 10347 10342 10338 10334 10330 10327 10323 10320 10318 10316 10314 10313 10312 10311 10311 10311 10312 10313 10314 10316 10318 10322 10325 10328 10332 10336 10342 10347 10354 10361 10368 10376 10384 10392 10401 10410 10420 10428 10435 10442 10448 10453 10463 10476 10490 10501 10512 10523 10535 10544
10590 10584 10578 10572 10566 10559 10552 10545 10538 10530 10522 10513 10504 10497 10488 10478 10468 10458 10449 10441 10434 10426 10419 10415 10410 10405 10400 10397 10392 10388 10384 10380 10375 10370 10365 10360 10355 10349 10344 10340 10336 10332 10329 10325 10323 10320 10318 10316 10315 10314 10314 10313 10313 10314 10316 10317 10318 10320 10323 10327 10330 10334 10338 10344 10350 10356 10361 10367 10375 10384 10394 10402 10410 10418 10427 10436 10442 10448 10456 10468 10480 10490 10499 10510 10521 10532 10542
10587 10581 10576 10570 10563 10556 10549 10543 10536 10529 10520 10511 10502 10494 10486 10477 10468 10459 10450 10441 10433 10426 10419 10414 10410 10405 10400 10396 10392 10387 10383 10380 10376 10371 10367 10362 10357 10351 10346 10342 10338 10334 10331 10328 10325 10323 10320 10319 10317 10316 10316 10316 10316 10317 10318 10320 10321 10323 10325 10328 10332 10336 10341 10347 10353 10359 10364 10370 10378 10388 10396 10404 10412 10419 10427 10435 10443 10453 10464 10476 10484 10490 10498 10508 10518 10529 10539
10584 10578 10573 10567 10560 10554 10547 10541 10534 10527 10519 10510 10501 10493 10483 10473 10465 10457 10448 10440 10433 10426 10419 10413 10410 10406 10401 10396 10392 10387 10383 10380 10377 10373 10369 10363 10358 10353 10348 10344 10340 10337 10333 10331 10328 10325 10323 10321 10320 10319 10319 10319 10319 10320 10321 10323 10324 10326 10328 10330 10334 10338 10343 10348 10355 10362 10368 10375 10384 10391 10398 10405 10413 10419 10426 10435 10446 10458 10471 10482 10488 10493 10499 10508 10517 10525 10532
10581 10575 10569 10564 10558 10551 10545 10538 10532 10525 10518 10509 10501 10493 10484 10474 10465 10455 10446 10438 10431 10426 10420 10413 10408 10406 10402 10397 10394 10390 10386 10382 10378 10374 10369 10364 10359 10355 10350 10346 10343 10340 10337 10334 10331 10328 10325 10324 10323 10322 10322 10321 10322 10322 10323 10325 10327 10329 10331 10334 10337 10341 10345 10350 10356 10363 10369 10377 10385 10392 10399 10405 10412 10418 10427 10438 10448 10461 10475 10485 10490 10494 10500 10507 10514 10522 10529
10577 10572 10566 10560 10554 10548 10542 10535 10529 10522 10515 10508 10500 10492 10483 10474 10465 10455 10446 10438 10430 10424 10420 10414 10408 10404 10401 10397 10393 10390 10386 10382 10379 10375 10370 10365 10360 10356 10353 10349 10346 10342 10339 10337 10334 10331 10329 10327 10326 10326 10325 10324 10324 10325 10326 10327 10330 10332 10335 10337 10340 10344 10348 10352 10357 10363 10370 10377 10385 10393 10401 10408 10413 10419 10429 10439 10449 10461 10474 10482 10487 10492 10497 10503 10510 10519 10527
10574 10569 10563 10557 10551 10545 10539 10532 10526 10519 10512 10505 10497 10489 10481 10473 10464 10455 10446 10438 10431 10423 10418 10415 10410 10405 10401 10398 10394 10390 10386 10383 10379 10376 10371 10367 10362 10358 10355 10351 10348 10345 10342 10339 10337 10334 10332 10331 10329 10329 10328 10327 10327 10328 10329 10330 10332 10334 10337 10340 10343 10347 10351 10354 10359 10365 10372 10379 10387 10395 10401 10406 10412 10421 10430 10439 10449 10461 10471 10477 10482 10487 10493 10499 10507 10516 10524
10571 10565 10560 10554 10548 10542 10536 10529 10523 10517 10510 10502 10494 10487 10479 10471 10464 10456 10446 10437 10430 10424 10417 10413 10409 10405 10401 10398 10395 10391 10387 10384 10380 10377 10373 10369 10364 10360 10357 10354 10351 10347 10345 10342 10339 10338 10336 10334 10333 10332 10331 10330 10330 10331 10332 10333 10334 10337 10340 10343 10346 10349 10353 10357 10362 10367 10374 10381 10389 10394 10398 10404 10411 10420 10430 10440 10450 10460 10468 10474 10478 10483 10491 10499 10507 10514 10520
10567 10562 10556 10551 10545 10539 10533 10526 10520 10514 10508 10500 10492 10484 10477 10469 10461 10455 10446 10437 10429 10424 10418 10412 10407 10403 10399 10397 10395 10392 10388 10385 10381 10378 10375 10371 10366 10362 10358 10356 10353 10350 10348 10345 10342 10341 10339 10337 10336 10335 10334 10333 10333 10333 10334 10335 10337 10339 10342 10345 10348 10352 10356 10360 10364 10369 10375 10381 10387 10393 10398 10405 10410 10416 10426 10438 10448 10456 10464 10470 10475 10481 10490 10499 10507 10513 10519
10563 10558 10553 10548 10542 10536 10530 10523 10517 10511 10505 10498 10490 10482 10474 10467 10459 10452 10446 10437 10429 10423 10418 10413 10408 10404 10400 10396 10394 10391 10388 10385 10382 10379 10375 10372 10368 10364 10360 10358 10355 10353 10350 10347 10345 10344 10342 10340 10339 10338 10337 10337 10336 10336 10337 10338 10339 10341 10344 10347 10350 10354 10358 10362 10366 10371 10376 10381 10387 10393 10399 10405 10411 10417 10425 10434 10443 10451 10459 10468 10476 10482 10489 10496 10504 10512 10518
10560 10555 10549 10544 10539 10533 10527 10521 10514 10508 10502 10496 10488 10480 10472 10465 10457 10450 10444 10437 10429 10422 10418 10413 10409 10405 10401 10397 10394 10391 10388 10385 10382 10379 10376 10373 10369 10365 10362 10359 10357 10355 10353 10350 10348 10347 10345 10344 10342 10341 10341 10340 10339 10339 10339 10340 10342 10344 10346 10349 10352 10355 10359 10363 10368 10372 10378 10383 10389 10394 10399 10406 10412 10419 10426 10433 10438 10447 10457 10468 10476 10483 10488 10495 10502 10510 10516
10556 10551 10546 10541 10536 10530 10524 10518 10511 10505 10499 10493 10485 10477 10470 10463 10455 10448 10442 10436 10429 10422 10416 10412 10407 10403 10400 10397 10394 10391 10388 10385 10382 10380 10377 10374 10371 10367 10363 10361 10359 10357 10355 10353 10352 10350 10349 10347 10346 10345 10344 10343 10342 10342 10342 10343 10344 10346 10349 10351 10354 10357 10360 10364 10368 10373 10378 10384 10389 10394 10400 10406 10413 10419 10427 10434 10440 10448 10458 10467 10474 10480 10486 10492 10500 10508 10514
10552 10547 10543 10537 10532 10527 10521 10515 10509 10502 10496 10490 10483 10475 10467 10460 10454 10446 10440 10434 10428 10422 10416 10411 10406 10402 10399 10396 10393 10390 10388 10385 10382 10380 10377 10374 10371 10368 10365 10362 10361 10359 10357 10356 10354 10353 10351 10350 10349 10348 10347 10346 10345 10345 10345 10346 10347 10349 10351 10354 10356 10359 10362 10365 10369 10374 10379 10384 10389 10394 10399 10406 10411 10418 10427 10435 10441 10449 10456 10463 10469 10476 10482 10489 10497 10504 10511
10548 10544 10539 10534 10529 10523 10518 10512 10506 10499 10492 10487 10481 10473 10465 10457 10451 10445 10439 10432 10425 10420 10416 10411 10406 10402 10399 10396 10392 10389 10387 10385 10383 10380 10378 10375 10372 10369 10366 10363 10362 10360 10359 10358 10356 10355 10354 10353 10352 10351 10350 10349 10348 10348 10349 10349 10350 10351 10353 10356 10358 10361 10364 10367 10370 10375 10380 10386 10390 10395 10400 10406 10411 10418 10427 10435 10441 10447 10452 10458 10465 10473 10479 10486 10494 10501 10508
10544 10540 10535 10530 10525 10520 10515 10509 10503 10497 10490 10484 10478 10471 10463 10455 10449 10443 10438 10432 10425 10418 10413 10409 10405 10401 10398 10395 10392 10389 10387 10384 10382 10380 10378 10375 10372 10370 10367 10364 10362 10361 10359 10359 10358 10357 10356 10355 10354 10354 10353 10352 10352 10351 10352 10352 10353 10354 10355 10358 10361 10364 10366 10369 10373 10377 10382 10387 10392 10397 10402 10407 10413 10419 10427 10433 10439 10445 10450 10455 10463 10469 10476 10484 10491 10499 10506
10540 10536 10531 10526 10521 10516 10511 10506 10500 10494 10487 10481 10475 10468 10461 10453 10447 10440 10434 10429 10423 10417 10412 10407 10402 10399 10396 10393 10391 10388 10386 10384 10382 10380 10377 10375 10372 10370 10367 10365 10363 10361 10360 10359 10359 10358 10358 10357 10356 10356 10356 10355 10355 10354 10354 10355 10356 10357 10358 10360 10363 10365 10368 10371 10374 10378 10382 10388 10393 10398 10404 10409 10415 10421 10427 10433 10438 10442 10448 10454 10461 10467 10473 10481 10488 10496 10505
10536 10532 10527 10522 10517 10512 10507 10502 10497 10491 10485 10478 10472 10466 10458 10451 10444 10438 10431 10426 10421 10415 10410 10407 10402 10398 10395 10392 10389 10387 10385 10383 10381 10379 10377 10374 10372 10370 10367 10365 10363 10362 10360 10360 10360 10360 10359 10358 10358 10358 10358 10357 10357 10358 10358 10358 10359 10359 10361 10362 10364 10366 10369 10372 10375 10379 10383 10388 10394 10400 10406 10412 10416 10422 10428 10433 10438 10442 10448 10454 10460 10466 10472 10479 10486 10494 10502
10532 10528 10524 10518 10513 10508 10503 10498 10493 10488 10482 10474 10469 10463 10456 10448 10442 10435 10429 10424 10419 10413 10408 10404 10400 10397 10393 10391 10388 10386 10383 10381 10380 10378 10376 10374 10371 10369 10367 10365 10363 10362 10360 10360 10360 10360 10360 10360 10360 10360 10360 10359 10360 10361 10362 10362 10362 10363 10363 10365 10366 10368 10370 10373 10376 10379 10384 10388 10393 10399 10406 10411 10415 10420 10426 10432 10437 10442 10448 10454 10460 10465 10471 10478 10485 10493 10501
10528 10524 10519 10514 10509 10503 10498 10494 10489 10484 10478 10471 10465 10460 10454 10447 10440 10433 10426 10420 10416 10411 10406 10402 10398 10394 10391 10389 10386 10384 10382 10380 10378 10377 10375 10373 10371 10368 10366 10364 10363 10362 10361 10360 10360 10360 10361 10361 10361 10361 10361 10360 10361 10362 10363 10364 10365 10365 10365 10367 10370 10371 10372 10375 10378 10381 10384 10388 10392 10397 10403 10408 10412 10417 10423 10427 10431 10438 10445 10451 10457 10464 10470 10476 10484 10490 10495
10524 10520 10515 10510 10504 10499 10493 10489 10485 10480 10474 10467 10461 10456 10451 10444 10437 10430 10424 10417 10413 10408 10404 10400 10396 10392 10389 10386 10384 10382 10380 10378 10376 10375 10374 10372 10370 10367 10365 10364 10362 10362 10361 10360 10360 10360 10360 10361 10361 10361 10362 10362 10362 10363 10364 10365 10366 10367 10367 10369 10372 10373 10374 10376 10380 10382 10384 10387 10391 10395 10400 10405 10409 10413 10418 10421 10425 10432 10439 10446 10453 10459 10465 10472 10477 10480 10483
10519 10515 10510 10505 10499 10494 10489 10485 10480 10476 10470 10464 10456 10451 10447 10441 10434 10427 10421 10415 10410 10406 10401 10398 10394 10391 10388 10385 10382 10380 10378 10376 10375 10373 10372 10371 10369 10367 10364 10363 10361 10361 10360 10360 10359 10359 10360 10361 10362 10362 10363 10363 10364 10364 10365 10366 10366 10367 10368 10369 10372 10374 10376 10377 10379 10381 10384 10386 10389 10393 10396 10400 10404 10408 10412 10416 10421 10427 10433 10440 10447 10453 10459 10465 10469 10473 10475
10515 10510 10505 10500 10495 10490 10485 10481 10476 10471 10466 10460 10453 10446 10441 10436 10429 10423 10418 10412 10407 10403 10399 10395 10392 10389 10386 10383 10380 10377 10375 10374 10373 10372 10370 10369 10367 10365 10363 10362 10360 10360 10359 10359 10359 10359 10359 10360 10362 10363 10363 10364 10364 10365 10366 10366 10366 10367 10369 10370 10371 10373 10375 10377 10379 10381 10383 10386 10389 10392 10395 10398 10401 10405 10408 10411 10415 10421 10427 10434 10442 10447 10452 10458 10463 10467 10470
10510 10506 10501 10496 10490 10485 10481 10477 10472 10467 10462 10456 10449 10443 10437 10431 10425 10419 10415 10410 10405 10401 10397 10393 10390 10387 10384 10381 10378 10376 10374 10372 10370 10369 10369 10367 10365 10364 10362 10360 10359 10358 10358 10358 10358 10358 10358 10360 10361 10363 10363 10364 10365 10366 10366 10367 10367 10368 10370 10371 10372 10373 10374 10376 10378 10380 10383 10386 10390 10393 10396 10398 10401 10404 10406 10409 10413 10419 10425 10431 10437 10442 10448 10453 10458 10462 10466
10505 10501 10496 10491 10486 10481 10477 10472 10467 10462 10457 10452 10445 10439 10433 10427 10421 10415 10411 10406 10402 10398 10394 10391 10387 10385 10382 10379 10377 10374 10372 10370 10368 10367 10366 10365 10364 10362 10360 10359 10358 10357 10356 10356 10357 10357 10357 10359 10360 10362 10363 10363 10364 10365 10366 10367 10368 10369 10370 10372 10373 10375 10376 10377 10378 10380 10383 10387 10390 10392 10395 10398 10400 10403 10405 10409 10414 10419 10424 10429 10434 10439 10444 10449 10454 10458 10462
10500 10495 10491 10486 10481 10476 10472 10467 10462 10457 10452 10446 10441 10435 10429 10424 10418 10412 10406 10402 10398 10394 10391 10388 10385 10382 10380 10377 10375 10372 10370 10368 10366 10365 10364 10363 10362 10360 10358 10357 10356 10355 10355 10355 10355 10356 10356 10357 10359 10360 10362 10363 10363 10364 10366 10367 10368 10369 10370 10372 10373 10375 10376 10377 10378 10380 10383 10386 10389 10392 10395 10397 10400 10402 10405 10408 10413 10418 10422 10426 10431 10436 10440 10445 10450 10454 10459
10494 10490 10485 10480 10476 10471 10467 10462 10457 10452 10447 10441 10436 10430 10425 10420 10415 10409 10404 10399 10395 10391 10388 10385 10382 10379 10377 10375 10373 10370 10368 10366 10365 10363 10362 10361 10360 10358 10356 10355 10354 10353 10353 10353 10354 10354 10355 10356 10357 10358 10360 10361 10363 10364 10365 10367 10369 10370 10371 10371 10373 10374 10376 10378 10380 10382 10385 10387 10390 10392 10395 10397 10399 10402 10405 10408 10412 10416 10420 10423 10427 10431 10436 10441 10445 10450 10454
10489 10485 10480 10475 10471 10467 10462 10458 10453 10448 10443 10437 10431 10425 10420 10415 10410 10405 10400 10396 10392 10388 10385 10382 10379 10376 10374 10372 10370 10368 10366 10364 10363 10361 10360 10359 10357 10355 10354 10353 10352 10352 10351 10351 10352 10352 10353 10354 10355 10356 10357 10360 10362 10363 10364 10366 10368 10370 10370 10371 10372 10374 10376 10378 10380 10383 10386 10389 10390 10392 10394 10397 10399 10401 10404 10407 10410 10414 10418 10421 10425 10428 10432 10436 10440 10445 10449
10484 10480 10476 10471 10466 10462 10457 10452 10447 10443 10438 10432 10427 10421 10415 10410 10405 10400 10396 10392 10388 10385 10382 10379 10376 10374 10371 10369 10368 10366 10364 10362 10361 10360 10358 10357 10355 10353 10352 10351 10350 10349 10349 10349 10349 10350 10351 10352 10353 10354 10355 10357 10360 10362 10363 10364 10366 10368 10370 10370 10372 10373 10376 10378 10380 10382 10385 10387 10389 10391 10393 10395 10397 10400 10402 10405 10409 10412 10415 10418 10422 10425 10429 10432 10436 10439 10443
10479 10474 10470 10465 10460 10456 10451 10446 10442 10437 10432 10427 10421 10416 10411 10406 10401 10396 10392 10388 10384 10381 10378 10375 10373 10370 10368 10367 10365 10364 10362 10360 10359 10358 10356 10355 10353 10351 10349 10348 10348 10347 10347 10347 10347 10347 10348 10350 10351 10352 10353 10355 10357 10360 10361 10362 10364 10366 10368 10369 10371 10372 10374 10377 10379 10381 10383 10385 10387 10389 10392 10394 10396 10398 10401 10403 10406 10409 10412 10415 10418 10421 10425 10428 10432 10435 10438
10472 10468 10464 10459 10454 10450 10445 10440 10435 10430 10425 10420 10415 10410 10405 10401 10397 10392 10388 10384 10381 10378 10375 10373 10370 10367 10365 10364 10362 10360 10359 10358 10357 10355 10354 10352 10351 10349 10347 10346 10345 10345 10344 10344 10344 10344 10346 10347 10348 10349 10351 10353 10355 10357 10359 10360 10362 10364 10366 10368 10369 10371 10372 10374 10376 10379 10381 10383 10385 10388 10391 10393 10396 10398 10400 10402 10405 10407 10410 10412 10415 10418 10421 10424 10427 10430 10434
10466 10462 10458 10453 10448 10444 10439 10435 10430 10425 10420 10415 10410 10404 10399 10395 10392 10388 10384 10380 10377 10374 10372 10369 10366 10364 10362 10361 10359 10357 10356 10355 10354 10353 10351 10349 10348 10346 10345 10344 10343 10342 10342 10342 10341 10342 10343 10344 10345 10346 10348 10350 10352 10354 10357 10358 10360 10361 10363 10365 10367 10369 10370 10372 10374 10376 10379 10381 10384 10387 10390 10392 10394 10396 10398 10400 10403 10406 10408 10411 10413 10416 10419 10421 10423 10426 10429
10459 10455 10451 10447 10442 10438 10433 10429 10425 10421 10415 10410 10405 10400 10394 10390 10387 10383 10379 10376 10373 10371 10368 10366 10363 10361 10359 10358 10356 10354 10353 10353 10352 10350 10349 10347 10345 10344 10343 10342 10340 10340 10339 10338 10339 10339 10340 10341 10342 10344 10346 10348 10350 10352 10354 10355 10357 10359 10360 10362 10364 10366 10368 10370 10372 10374 10376 10378 10381 10385 10388 10390 10392 10393 10395 10398 10401 10404 10406 10409 10411 10414 10416 10418 10421 10423 10425
10452 10449 10444 10440 10436 10432 10427 10422 10418 10414 10409 10404 10399 10394 10389 10385 10381 10378 10375 10372 10369 10367 10365 10362 10360 10358 10357 10355 10353 10352 10351 10350 10349 10348 10346 10344 10342 10341 10340 10339 10338 10337 10336 10336 10336 10337 10338 10338 10340 10341 10343 10344 10346 10348 10350 10352 10354 10356 10357 10359 10361 10362 10365 10368 10370 10372 10373 10375 10377 10381 10384 10387 10389 10391 10393 10395 10398 10401 10404 10406 10408 10411 10413 10415 10418 10420 10422
10445 10441 10437 10432 10428 10424 10420 10415 10411 10406 10401 10397 10393 10388 10383 10379 10376 10373 10370 10368 10366 10364 10362 10359 10356 10355 10354 10352 10350 10349 10348 10347 10346 10345 10343 10341 10339 10338 10337 10336 10335 10334 10334 10333 10333 10334 10334 10335 10336 10338 10339 10341 10343 10344 10346 10348 10350 10352 10354 10356 10357 10359 10362 10364 10367 10369 10370 10372 10373 10376 10380 10383 10386 10388 10390 10393 10395 10398 10401 10403 10405 10407 10409 10412 10414 10416 10419
10437 10433 10429 10424 10420 10416 10413 10409 10404 10399 10395 10391 10387 10383 10378 10374 10372 10369 10365 10363 10362 10361 10359 10356 10353 10352 10350 10349 10347 10346 10345 10344 10343 10342 10340 10338 10336 10335 10334 10333 10331 10331 10331 10331 10331 10331 10331 10331 10332 10333 10335 10337 10339 10341 10342 10344 10346 10347 10349 10351 10353 10355 10358 10360 10363 10365 10367 10368 10370 10372 10375 10379 10382 10384 10387 10389 10392 10394 10397 10399 10401 10403 10406 10408 10410 10413 10415
10430 10426 10422 10417 10413 10409 10405 10402 10398 10394 10389 10386 10382 10377 10372 10369 10367 10365 10361 10359 10358 10357 10355 10353 10350 10349 10347 10345 10344 10343 10342 10341 10340 10339 10337 10335 10333 10331 10330 10329 10328 10328 10329 10329 10328 10328 10327 10327 10328 10329 10331 10333 10335 10337 10339 10341 10342 10343 10345 10347 10349 10351 10353 10356 10358 10361 10363 10365 10366 10368 10371 10373 10376 10379 10382 10384 10387 10390 10392 10394 10397 10399 10402 10404 10406 10408 10411
10423 10419 10415 10411 10407 10403 10398 10395 10391 10387 10383 10380 10376 10373 10368 10364 10362 10360 10358 10355 10354 10353 10351 10349 10347 10345 10344 10342 10341 10340 10339 10338 10337 10336 10334 10332 10330 10328 10327 10326 10326 10326 10326 10326 10325 10324 10323 10323 10324 10325 10326 10328 10330 10333 10335 10337 10339 10340 10341 10343 10345 10347 10349 10351 10354 10356 10358 10360 10362 10364 10366 10368 10371 10374 10376 10379 10382 10385 10387 10389 10392 10395 10397 10400 10402 10404 10406
10415 10411 10407 10403 10400 10396 10392 10388 10384 10381 10378 10374 10371 10367 10364 10361 10358 10355 10353 10352 10350 10349 10347 10345 10343 10342 10340 10339 10338 10337 10336 10334 10333 10332 10331 10329 10327 10325 10324 10323 10323 10323 10322 10321 10320 10319 10318 10319 10320 10321 10322 10323 10326 10329 10331 10333 10335 10336 10338 10340 10341 10343 10345 10347 10349 10352 10354 10356 10358 10359 10361 10364 10366 10368 10371 10373 10376 10379 10381 10384 10386 10389 10392 10394 10396 10398 10400
10408 10404 10399 10395 10392 10389 10385 10381 10377 10374 10372 10369 10365 10362 10359 10357 10354 10350 10348 10347 10347 10345 10343 10341 10340 10338 10336 10336 10335 10333 10332 10331 10330 10329 10327 10326 10324 10322 10321 10319 10319 10319 10318 10316 10316 10315 10315 10315 10316 10317 10318 10319 10322 10325 10327 10329 10331 10332 10334 10336 10337 10339 10342 10344 10345 10347 10349 10351 10353 10355 10357 10359 10361 10363 10365 10368 10370 10373 10375 10378 10380 10383 10385 10387 10389 10392 10394
10399 10395 10391 10387 10384 10381 10377 10373 10370 10367 10365 10362 10360 10356 10353 10351 10349 10346 10343 10342 10342 10341 10339 10337 10336 10334 10333 10332 10331 10330 10329 10327 10326 10325 10324 10322 10321 10319 10317 10316 10315 10314 10313 10313 10312 10312 10312 10312 10313 10313 10314 10316 10318 10320 10322 10324 10326 10328 10330 10332 10333 10336 10338 10340 10342 10343 10345 10347 10348 10350 10352 10354 10356 10358 10360 10362 10365 10367 10370 10372 10374 10377 10379 10381 10383 10385 10387
10391 10387 10383 10379 10375 10372 10369 10365 10362 10361 10359 10356 10354 10351 10348 10346 10344 10342 10339 10338 10338 10336 10334 10333 10332 10331 10329 10328 10327 10326 10325 10324 10322 10321 10320 10319 10317 10315 10314 10312 10311 10310 10310 10310 10309 10309 10309 10309 10309 10310 10311 10312 10314 10316 10318 10320 10322 10324 10326 10328 10329 10332 10334 10336 10338 10340 10341 10343 10345 10346 10348 10349 10351 10353 10355 10357 10360 10362 10364 10366 10368 10371 10373 10375 10376 10378 10380
10382 10378 10375 10371 10368 10364 10361 10358 10355 10354 10352 10350 10348 10346 10343 10340 10338 10337 10336 10335 10333 10331 10330 10329 10328 10327 10325 10324 10323 10322 10321 10320 10319 10318 10316 10315 10314 10312 10310 10309 10307 10307 10306 10306 10306 10306 10305 10305 10306 10306 10306 10308 10310 10312 10314 10316 10319 10320 10322 10323 10325 10328 10330 10333 10334 10336 10338 10340 10341 10343 10344 10345 10347 10349 10351 10353 10355 10356 10359 10361 10363 10364 10366 10368 10370 10372 10374
10374 10370 10366 10363 10360 10357 10353 10350 10348 10347 10346 10344 10343 10340 10338 10335 10333 10331 10331 10331 10329 10327 10325 10325 10324 10323 10321 10320 10319 10318 10317 10316 10315 10314 10313 10311 10310 10308 10306 10305 10303 10303 10303 10302 10302 10302 10302 10302 10302 10302 10302 10304 10306 10308 10310 10312 10314 10316 10317 10319 10321 10323 10326 10329 10331 10333 10335 10336 10338 10339 10341 10342 10344 10346 10347 10349 10350 10352 10354 10355 10357 10359 10361 10362 10364 10366 10368
10365 10362 10358 10355 10352 10349 10346 10343 10341 10340 10339 10338 10337 10334 10332 10330 10328 10326 10325 10325 10324 10322 10321 10320 10319 10318 10317 10316 10314 10313 10313 10312 10311 10310 10309 10307 10306 10304 10302 10301 10299 10299 10299 10299 10298 10298 10298 10298 10298 10298 10298 10300 10302 10304 10305 10307 10309 10311 10313 10315 10317 10319 10322 10324 10327 10329 10331 10333 10334 10336 10338 10339 10341 10342 10344 10345 10347 10348 10350 10351 10352 10354 10355 10357 10359 10360 10362
10356 10353 10349 10346 10344 10342 10338 10335 10334 10332 10331 10331 10330 10328 10326 10325 10323 10321 10320 10319 10319 10317 10316 10315 10314 10314 10312 10311 10310 10309 10308 10308 10306 10305 10305 10303 10302 10300 10298 10297 10295 10294 10294 10295 10294 10294 10294 10294 10294 10294 10294 10295 10297 10299 10300 10301 10303 10305 10307 10310 10313 10315 10317 10320 10322 10325 10327 10329 10331 10333 10334 10336 10337 10339 10340 10342 10343 10344 10346 10347 10348 10350 10351 10353 10354 10356 10357
10347 10344 10341 10339 10337 10334 10331 10329 10327 10325 10323 10324 10324 10322 10319 10318 10318 10316 10315 10314 10313 10312 10311 10310 10309 10309 10308 10307 10306 10305 10304 10303 10302 10301 10300 10299 10297 10296 10294 10293 10291 10290 10290 10290 10290 10290 10289 10289 10289 10290 10290 10291 10293 10294 10295 10296 10298 10300 10303 10306 10309 10311 10313 10315 10318 10320 10323 10325 10327 10328 10330 10332 10333 10335 10336 10338 10339 10340 10341 10343 10344 10345 10347 10348 10350 10351 10352